Location: Avon
(37.7514°N, 90.2235°W)
Time: 12:55:13
(UTC+00:00)

A-11 Canister half - Pass Details

Date: 15 November 2025
Orbit: 1526 x 1681 km, 47.3° (Epoch: 05 December)

Event Time Altitude Azimuth Distance (km) Brightness Sun altitude
Rises 23:48:02 0° 230° (SW) 4,904 12.9 -11.7°
Reaches altitude 10° 23:51:12 10° 230° (SW) 3,906 12.2 -12.3°
Maximum altitude 00:01:13 82° 144° (SE) 1,645 9.1 -14.2°
Enters shadow 00:09:02 18° 60° (ENE) 3,213 10.1 -15.7°
